User: anonymous   Login
Location: Caltech
(34.1382°N, 118.1253°W)
Time: 18:22:36
(UTC-07:00)
Language:

Cosmos 44 Rocket - Orbit

View from above orbital plane
View from above orbital plane
View from above satellite
View from above satellite

Ground track
Ground track

The orbit data is extracted from the following two-line orbital elements,

1 00877U 64053B   18146.04261864 -.00000073  00000-0  10204-4 0  9993
2 00877  65.0788  10.5847 0075152 324.0659  35.5398 14.59332376851541
Epoch (UTC): 26 May 2018 01:01:22
Eccentricity: 0.0075152
inclination: 65.0788°
perigee height: 642 km
apogee height: 748 km
right ascension of ascending node: 10.5847°
argument of perigee: 324.0659°
revolutions per day: 14.59332376
mean anomaly at epoch: 35.5398°
orbit number at epoch: 85154

The dashed part of the orbit path shows where the satellite is in the earth's shadow,  

DLR